When you browse on this site, cookies collect data to enhance your experience and personalize the content and advertising you see.
Visit our Privacy Policy to learn more. By continuing to use the site, you agree to this use of cookies and data.
  • en Suisse
  • Liste des pays
  • À 7 jours
  • Température de l'eau
  • Carte météo
  • Widgets météo
  • user-avatar
    Se connecter

    Météo par heure à Puzovo

    Ce jour, 8 Décembre, Dimanche

    Heure Température Précipitation Vent Pression Humidité
    00:00 -3°C° 0 mm 6 m/s 733 mmHg 85%
    01:00 -3°C° 0 mm 6 m/s 733 mmHg 87%
    02:00 -2°C° 0 mm 6 m/s 733 mmHg 89%
    03:00 -2°C° 0.1 mm 6 m/s 732 mmHg 89%
    04:00 -1°C° 0.1 mm 6 m/s 732 mmHg 90%
    05:00 -1°C° 0.1 mm 6 m/s 732 mmHg 90%
    06:00 -1°C° 0 mm 6 m/s 732 mmHg 89%
    07:00 -1°C° 0 mm 6 m/s 733 mmHg 87%
    08:00 -1°C° 0 mm 6 m/s 733 mmHg 86%
    09:00 -1°C° 0 mm 6 m/s 734 mmHg 85%
    10:00 -1°C° 0 mm 6 m/s 734 mmHg 84%
    11:00 -1°C° 0 mm 6 m/s 734 mmHg 83%
    12:00 0°C° 0 mm 5 m/s 735 mmHg 83%
    13:00 0°C° 0 mm 5 m/s 735 mmHg 83%
    14:00 0°C° 0 mm 4 m/s 736 mmHg 82%
    15:00 0°C° 0 mm 4 m/s 736 mmHg 83%
    16:00 -1°C° 0 mm 4 m/s 736 mmHg 83%
    17:00 -1°C° 0 mm 4 m/s 737 mmHg 83%
    18:00 -1°C° 0 mm 5 m/s 737 mmHg 85%
    19:00 -1°C° 0 mm 5 m/s 737 mmHg 87%
    20:00 -1°C° 0 mm 5 m/s 737 mmHg 89%
    21:00 -1°C° 0 mm 5 m/s 737 mmHg 91%
    22:00 -1°C° 0 mm 6 m/s 736 mmHg 94%
    23:00 -1°C° 0 mm 6 m/s 736 mmHg 96%

    Demain, 9 Décembre, Lundi

    Heure Température Précipitation Vent Pression Humidité
    00:00 -1°C° 0.1 mm 6 m/s 736 mmHg 95%
    01:00 +1°C° 0.1 mm 6 m/s 736 mmHg 94%
    02:00 +1°C° 0.1 mm 6 m/s 735 mmHg 92%
    03:00 +1°C° 0.1 mm 6 m/s 735 mmHg 92%
    04:00 -1°C° 0.1 mm 6 m/s 735 mmHg 92%
    05:00 -1°C° 0.1 mm 6 m/s 734 mmHg 92%
    06:00 -1°C° 0 mm 6 m/s 734 mmHg 92%
    07:00 -1°C° 0 mm 7 m/s 734 mmHg 91%
    08:00 -1°C° 0 mm 7 m/s 734 mmHg 91%
    09:00 -1°C° 0.1 mm 7 m/s 734 mmHg 91%
    10:00 -1°C° 0.1 mm 6 m/s 735 mmHg 91%
    11:00 +1°C° 0.1 mm 6 m/s 735 mmHg 91%
    12:00 +1°C° 0 mm 6 m/s 735 mmHg 91%
    13:00 +1°C° 0 mm 5 m/s 735 mmHg 91%
    14:00 +1°C° 0 mm 5 m/s 735 mmHg 91%
    15:00 +1°C° 0.3 mm 5 m/s 735 mmHg 92%
    16:00 +1°C° 0.3 mm 5 m/s 735 mmHg 94%
    17:00 +1°C° 0.3 mm 5 m/s 736 mmHg 95%
    18:00 +1°C° 0.1 mm 5 m/s 736 mmHg 94%
    19:00 +1°C° 0.1 mm 5 m/s 736 mmHg 94%
    20:00 +1°C° 0.1 mm 5 m/s 737 mmHg 94%
    21:00 +1°C° 0 mm 5 m/s 737 mmHg 94%
    22:00 +1°C° 0 mm 4 m/s 737 mmHg 94%
    23:00 +1°C° 0 mm 4 m/s 737 mmHg 95%

    Après-demain, 10 Décembre, Mardi

    Heure Température Précipitation Vent Pression Humidité
    00:00 +1°C° 0.1 mm 4 m/s 737 mmHg 95%
    01:00 +1°C° 0.1 mm 4 m/s 738 mmHg 95%
    02:00 +1°C° 0.1 mm 3 m/s 738 mmHg 96%
    03:00 +1°C° 0.6 mm 3 m/s 738 mmHg 96%
    04:00 +1°C° 0.6 mm 3 m/s 738 mmHg 96%
    05:00 +1°C° 0.6 mm 3 m/s 738 mmHg 96%
    06:00 0°C° 0.1 mm 4 m/s 738 mmHg 96%
    07:00 0°C° 0.1 mm 4 m/s 739 mmHg 96%
    08:00 0°C° 0.1 mm 4 m/s 739 mmHg 96%
    09:00 +1°C° 0 mm 4 m/s 739 mmHg 96%
    10:00 +1°C° 0 mm 4 m/s 740 mmHg 95%
    11:00 +1°C° 0 mm 4 m/s 740 mmHg 95%
    12:00 +1°C° 0 mm 4 m/s 740 mmHg 94%
    13:00 +3°C° 0 mm 4 m/s 740 mmHg 93%
    14:00 +3°C° 0 mm 4 m/s 740 mmHg 92%
    15:00 +1°C° 0 mm 4 m/s 740 mmHg 92%
    16:00 +1°C° 0 mm 4 m/s 740 mmHg 93%
    17:00 +1°C° 0 mm 4 m/s 740 mmHg 93%
    18:00 +1°C° 0 mm 4 m/s 740 mmHg 92%
    19:00 +1°C° 0 mm 4 m/s 741 mmHg 92%
    20:00 +1°C° 0 mm 4 m/s 741 mmHg 91%
    21:00 +1°C° 0 mm 4 m/s 742 mmHg 91%
    22:00 +1°C° 0 mm 4 m/s 742 mmHg 92%
    23:00 +1°C° 0 mm 4 m/s 742 mmHg 93%

    11 Décembre, Mercredi

    Heure Température Précipitation Vent Pression Humidité
    00:00 0°C° 0.1 mm 4 m/s 743 mmHg 89%
    01:00 -1°C° 0.1 mm 4 m/s 744 mmHg 86%
    02:00 -1°C° 0.1 mm 3 m/s 744 mmHg 82%
    03:00 -2°C° 0 mm 3 m/s 745 mmHg 82%
    04:00 -3°C° 0 mm 4 m/s 746 mmHg 81%
    05:00 -4°C° 0 mm 4 m/s 746 mmHg 80%
    06:00 -4°C° 0 mm 3 m/s 747 mmHg 79%
    07:00 -4°C° 0 mm 3 m/s 748 mmHg 78%
    08:00 -4°C° 0 mm 3 m/s 748 mmHg 77%
    09:00 -4°C° 0 mm 3 m/s 748 mmHg 74%
    10:00 -2°C° 0 mm 3 m/s 749 mmHg 70%
    11:00 -2°C° 0 mm 3 m/s 749 mmHg 67%
    12:00 -2°C° 0 mm 2 m/s 749 mmHg 67%
    13:00 -1°C° 0 mm 2 m/s 749 mmHg 67%
    14:00 -1°C° 0 mm 2 m/s 749 mmHg 67%
    15:00 0°C° 0 mm 1 m/s 749 mmHg 69%
    16:00 0°C° 0 mm 1 m/s 750 mmHg 71%
    17:00 -1°C° 0 mm 1 m/s 750 mmHg 73%
    18:00 -1°C° 0 mm 1 m/s 750 mmHg 71%
    19:00 -1°C° 0 mm 1 m/s 750 mmHg 69%
    20:00 -1°C° 0 mm 1 m/s 750 mmHg 68%
    21:00 -3°C° 0 mm 2 m/s 750 mmHg 66%
    22:00 -3°C° 0 mm 2 m/s 750 mmHg 65%
    23:00 -3°C° 0 mm 2 m/s 750 mmHg 63%

    12 Décembre, Jeudi

    Heure Température Précipitation Vent Pression Humidité
    00:00 -3°C° 0 mm 2 m/s 750 mmHg 62%
    01:00 -3°C° 0 mm 2 m/s 749 mmHg 61%
    02:00 -3°C° 0 mm 2 m/s 749 mmHg 60%
    03:00 -4°C° 0 mm 2 m/s 749 mmHg 60%
    04:00 -4°C° 0 mm 2 m/s 749 mmHg 60%
    05:00 -4°C° 0 mm 2 m/s 749 mmHg 60%
    06:00 -4°C° 0 mm 2 m/s 749 mmHg 60%
    07:00 -5°C° 0 mm 3 m/s 749 mmHg 61%
    08:00 -5°C° 0 mm 3 m/s 749 mmHg 62%
    09:00 -5°C° 0 mm 3 m/s 748 mmHg 60%
    10:00 -5°C° 0 mm 3 m/s 748 mmHg 58%
    11:00 -4°C° 0 mm 4 m/s 748 mmHg 56%
    12:00 -4°C° 0 mm 3 m/s 748 mmHg 55%
    13:00 -4°C° 0 mm 3 m/s 748 mmHg 54%
    14:00 -4°C° 0 mm 3 m/s 747 mmHg 54%
    15:00 -4°C° 0 mm 3 m/s 747 mmHg 56%
    16:00 -5°C° 0 mm 3 m/s 747 mmHg 59%
    17:00 -5°C° 0 mm 3 m/s 747 mmHg 61%
    18:00 -5°C° 0 mm 3 m/s 747 mmHg 62%
    19:00 -5°C° 0 mm 3 m/s 747 mmHg 63%
    20:00 -5°C° 0 mm 3 m/s 747 mmHg 63%
    21:00 -6°C° 0 mm 3 m/s 747 mmHg 64%
    22:00 -6°C° 0 mm 3 m/s 746 mmHg 65%
    23:00 -7°C° 0 mm 4 m/s 746 mmHg 65%

    13 Décembre, Vendredi

    Heure Température Précipitation Vent Pression Humidité
    00:00 -7°C° 0 mm 4 m/s 746 mmHg 67%
    01:00 -7°C° 0 mm 4 m/s 746 mmHg 68%
    02:00 -7°C° 0 mm 4 m/s 746 mmHg 69%
    03:00 -7°C° 0 mm 4 m/s 745 mmHg 70%
    04:00 -8°C° 0 mm 4 m/s 745 mmHg 71%
    05:00 -8°C° 0 mm 4 m/s 745 mmHg 71%
    06:00 -8°C° 0 mm 4 m/s 745 mmHg 71%
    07:00 -8°C° 0 mm 4 m/s 745 mmHg 71%
    08:00 -8°C° 0 mm 4 m/s 744 mmHg 71%
    09:00 -7°C° 0 mm 4 m/s 744 mmHg 66%
    10:00 -6°C° 0 mm 5 m/s 744 mmHg 61%
    11:00 -6°C° 0 mm 5 m/s 744 mmHg 56%
    12:00 -6°C° 0 mm 5 m/s 743 mmHg 54%
    13:00 -5°C° 0 mm 5 m/s 743 mmHg 53%
    14:00 -5°C° 0 mm 5 m/s 742 mmHg 51%
    15:00 -5°C° 0 mm 5 m/s 742 mmHg 52%
    16:00 -6°C° 0 mm 5 m/s 742 mmHg 53%
    17:00 -6°C° 0 mm 5 m/s 742 mmHg 53%
    18:00 -6°C° 0 mm 5 m/s 742 mmHg 54%
    19:00 -6°C° 0 mm 5 m/s 742 mmHg 54%
    20:00 -6°C° 0 mm 5 m/s 742 mmHg 54%
    21:00 -6°C° 0 mm 5 m/s 741 mmHg 56%
    22:00 -6°C° 0 mm 6 m/s 741 mmHg 59%
    23:00 -6°C° 0 mm 6 m/s 741 mmHg 61%
    Voir plus